Погода в Дхарамсале

Индия     32°12′47″N   76°19′21″E
темп.,
°C
ветер,
м/с
пор.,
м/с
влажн.,
%
обл.,
%
осадки,
мм/ч
давл.,
гПа
погр.,
м
21 апреля, ср
ср2123:30+13св3357100 0.7 101271
02:30+12в3573100 1.9 1011314
05:30+11юв2380100 4.0 1011252
08:30+10юв4790100 6.3 1013410
11:30+10вюв3782100 10.7 1015333
14:30+15юв586397 2.6 1012796
17:30+16ююз3361100 4.3 1010500
20:30+11всв3376100 1.7 101349
22 апреля, чт
чт2223:30+11всв4368100 2.4 101340
02:30+12св4365100 1.3 101341
05:30+10св5571100 2.5 101490
08:30+15ююв344482 0.0 1014772
11:30+17ююз3453100 0.6 1015976
14:30+13всв346998 4.8 1015403
17:30+16юв3456100 7.3 1012755
20:30+11св6774100 3.8 1015168
23 апреля, пт
пт2323:30+11св65610 4.1 101446
02:30+11св655599 0.1 101357
05:30+10ссз3363100 0.8 1016102
08:30+10св7770100 6.4 1016161
11:30+16в4659100 7.4 1014662
14:30+21ююв6734100 0.6 10112247
17:30+20ююв24395 1.3 1007936
20:30+12св547241 3.2 101246
24 апреля, сб
сб2423:30+10св437248 4.4 101331
02:30+10св53682 1.1 101338
05:30+9св65600 1.4 101345
08:30+18св22380 0.0 1013205
11:30+21юз33310 0.0 10131699
14:30+23зюз44293 0.0 10121985
17:30+22ссз23310 0.0 1011750
20:30+15св65350 0.0 101554
25 апреля, вс
вс2523:30+13св75320 0.0 101654
02:30+13св75300 0.0 101557
05:30+12св75280 0.0 101556
08:30+21св22200 0.0 1014236
11:30+25юз42170 0.0 10131638
14:30+26юз54190 0.0 10112129
17:30+24зюз222316 0.0 1010871
20:30+17св54353 0.0 101349